Regional Weather Roundup
Issued by NWS Sterling, VA

Home | Current Version | Previous Version | Text Only | Print | Product List | Glossary Off
Versions: 1 2 3 4 5 6 7 8 9 10 11 12 13 14 15 16 17 18 19 20 21 22 23 24 25 26 27 28 29 30 31 32 33 34 35 36 37 38 39 40 41 42 43 44 45 46

000
ASUS41 KLWX 270510
RWRLWX

REGIONAL WEATHER ROUNDUP
NATIONAL WEATHER SERVICE BALTIMORE MD/WASHINGTON DC
1200 AM EST FRI FEB 27 2015

Note: "FAIR" indicates few or no clouds below 12,000 feet
with no significant weather and/or obstructions to visibility.
 TC=TEMPERATURE CELSIUS

 * =Non NWS site. Station does not report precipitation (e.g. rain,
    snow, etc.), thunder, or fog.

DCZ001-MDZ009-015-VAZ040>042-051-053>054-270600-
WASHINGTON METRO

CITY           SKY/WX    TMP DP  RH WIND       PRES   REMARKS
WASHINGTON NAT CLOUDY    33  23  66 S3        30.17R
DULLES         CLOUDY    30  24  78 CALM      30.14R
ANDREWS AFB    CLOUDY    29  22  74 SW1       30.14R
FT BELVOIR     CLOUDY    30  26  83 CALM      30.16R
QUANTICO       CLOUDY    32  25  75 CALM      30.17R
COLLEGE PARK*  CLOUDY    32  25  74 CALM      30.15S
LEESBURG*      CLOUDY    32  27  80 N3        30.15R
MANASSAS*      CLOUDY    30  28  93 CALM      30.15R
GAITHERSBURG*  CLOUDY    28  19  69 E3        30.16S

$$

MDZ006>007-011-014-270600-
BALTIMORE METRO

CITY           SKY/WX    TMP DP  RH WIND       PRES   REMARKS
BWI AIRPORT    CLOUDY    28  22  78 CALM      30.15R
MD SCIENCE CTR   N/A     31  20  63 MISG      30.16R
MARTIN STATE   PTCLDY    30  25  80 CALM      30.17R
ANNAPOLIS      CLOUDY    28  23  81 CALM      30.15R
FORT MEADE*    CLOUDY    28  23  80 CALM      30.17S

$$

MDZ012-015-019>023-270600-
MARYLAND EASTERN SHORE

CITY           SKY/WX    TMP DP  RH WIND       PRES   REMARKS
OCEAN CITY     PTCLDY    19  17  92 CALM      30.14R
SALISBURY      HAZE      19  14  81 CALM      30.15R VSB 1/4
BAY BRIDGE AP*   N/A     30  23  74 CALM      30.16R
CAMBRIDGE*     FAIR      23  21  93 CALM      30.15R
EASTON*        CLOUDY    27  24  87 CALM      30.18R

$$

MDZ017>025-270600-
SOUTHERN MARYLAND

CITY           SKY/WX    TMP DP  RH WIND       PRES   REMARKS
PATUXENT RIVER PTCLDY    22  19  89 W5        30.16R
ST INIGOES     CLEAR     21  15  78 CALM      30.16R HAZE
LEONARDTOWN*   MOCLDY    23  21  93 CALM      30.17R

$$

MDZ003>005-270600-
NORTH CENTRAL MARYLAND

CITY           SKY/WX    TMP DP  RH WIND       PRES   REMARKS
FREDERICK*     CLOUDY    30  19  64 N3        30.17R
HAGERSTOWN APT CLOUDY    27  21  78 NE3       30.12R
WESTMINSTER*   CLOUDY    27  19  74 CALM      30.11R

$$

MDZ501>502-270600-
WESTERN MARYLAND

CITY           SKY/WX    TMP DP  RH WIND       PRES   REMARKS
OAKLAND*       CLOUDY    14 N/A N/A W3        30.01R FOG
CUMBERLAND*    CLOUDY    30  18  59 N9        30.18R WCI  22

$$

VAZ025>031-270600-
SHENANDOAH VALLEY

CITY           SKY/WX    TMP DP  RH WIND       PRES   REMARKS
WINCHESTER*    MOCLDY    27  21  80 CALM      30.12R HAZE
FRONT ROYAL*   CLOUDY    28  25  86 CALM      30.11R
LURAY*         CLOUDY    30  28  93 CALM      30.10R
NEW MARKET*    CLOUDY    27  24  87 CALM      30.10R
STAUNTON*      CLOUDY    31  26  80 CALM      30.11R
WAYNESBORO*    CLOUDY    31  26  80 NW3       30.08R

$$

WVZ021-048>050-054>055-270600-
EASTERN WEST VIRGINIA PANHANDLE

CITY           SKY/WX    TMP DP  RH WIND       PRES   REMARKS
MARTINSBURG    MOCLDY    29  22  75 CALM      30.13R HAZE
PETERSBURG*    NOT AVBL

$$

VAZ036>039-050-270600-
CENTRAL FOOTHILLS

CITY           SKY/WX    TMP DP  RH WIND       PRES   REMARKS
CHARLOTTESVILL CLOUDY    32  26  78 S3        30.12R
CULPEPER*      MOCLDY    30  27  86 CALM      30.15R
ORANGE*        CLOUDY    32  28  86 CALM      30.15R
GORDONSVILLE*  CLOUDY    30  27  88 CALM      30.13R
WARRENTON*     CLOUDY    30  30 100 CALM      30.13R FOG

$$

VAZ055>057-270600-
NORTH AND CENTRAL PIEDMONT

CITY           SKY/WX    TMP DP  RH WIND       PRES   REMARKS
FREDERICKSBRG* CLOUDY    31  28  89 CALM      30.15R
STAFFORD*      CLOUDY    29  28  96 CALM      30.19R

$$

NCZ024-NYZ072-PAZ021-071-VAZ022-071-270600-
OTHER REGIONAL OBSERVATIONS

CITY           SKY/WX    TMP DP  RH WIND       PRES   REMARKS
NEW YORK CITY  PTCLDY    21   7  54 CALM      30.17R
PHILADELPHIA   CLOUDY    28  16  60 CALM      30.16R
PITTSBURGH     FLURRIES  10   5  80 NW8       30.21R WCI  -2
ROANOKE        PTCLDY    33  20  58 NW7       30.13R
RICHMOND       FOG       25  23  92 CALM      30.16R VSB 1
RALEIGH        MOCLDY    29  26  89 CALM      30.17R FOG

$$

ANZ530>537-270600-
MARINE OBSERVATIONS

STATION/POSITION TIME  TEMP    WIND        PRES
                       AIR SEA DIR/SP/G
                 (UTC) (F)     (DEG/KT/KT) (MB)
THOMAS PT LIGHT  0500   29 31   CALM  /  1 1022.5R
BALT KEY BRIDGE  0400   30      10/  2/  2 1020.8R
COVE POINT       0400   28     130/  4/  5 1019.9F
LEWISETTA        0400   26 31     CALM     1020.1S
SOLOMONS ISLAND  0400      32                N/A

$$




USA.gov is the U.S. government's official web portal to all federal, state and local government web resources and services.